Location: Stoke Bliss
(52.2667°N, 2.5167°W)
Time: 14:41:53
(UTC+00:00)

ERBS - Pass Details

Date: 03 March 2021
Orbit: 408 x 412 km, 57.0° (Epoch: 13 April)

Event Time Altitude Azimuth Distance (km) Brightness Sun altitude
Rises 18:54:59 0° 241° (WSW) 2,348 7.1 -10.2°
Reaches altitude 10° 18:57:03 10° 241° (WSW) 1,487 6.0 -10.5°
Maximum altitude 19:00:23 89° 313° (NW) 420 2.2 -11.0°
Enters shadow 19:03:04 15° 62° (ENE) 1,229 4.1 -11.4°
